Simultaneous Nadir Overpasses (SNOs) Predictions

Prediction of SNOs between GOES-17 and NOAA-19 Satellite Orbit:

Table of predicted SNOs for the next 14.0 days since TLE Epoch: 3/18/2023
Index Date Time (GOES-17) GOES-17 Lat,Lon NOAA-19 Lat,Lon Distance(km) Time Diff (sec)
1 03/18/2023 15:14:04 -0.00,-104.76 -0.61,-102.14 298.87 80
2 03/21/2023 03:31:47 -0.01,-104.71 -0.54,-106.98 259.48 80
3 03/22/2023 03:22:29 -0.01,-104.70 0.14,-104.06 73.14 80
4 03/23/2023 03:10:30 -0.01,-104.70 0.82,-101.14 405.81 80
5 03/24/2023 15:39:56 0.01,-104.73 0.94,-108.84 468.21 80
6 03/25/2023 15:27:56 0.02,-104.73 0.30,-105.91 135.47 80
7 03/26/2023 15:15:58 -0.02,-104.72 -0.41,-103.00 196.24 80
8 03/29/2023 03:39:01 0.02,-104.67 -0.71,-107.84 362.50 80
9 03/30/2023 03:27:02 0.03,-104.66 -0.06,-104.92 30.06 80
10 03/31/2023 03:15:04 0.03,-104.66 0.64,-102.00 302.80 80
